Time,TemperatureF,DewpointF,PressureIn,WindDirection,WindDirectionDegrees,WindSpeedMPH,WindSpeedGustMPH,Humidity,HourlyPrecipIn,Conditions,Clouds,dailyrainin,SoftwareType,DateUTC
2013-01-02 00:00:00,10.8,-0.4,30.00,WSW,248,3.5,3.5,60,0.00,BKN,,0.00,WeatherDisplay:10.37,2013-01-02 05:00:00,
2013-01-02 00:02:00,10.6,-0.6,30.00,SW,225,3.5,3.5,60,0.00,FEW,,0.00,WeatherDisplay:10.37,2013-01-02 05:02:00,
2013-01-02 00:03:00,10.6,-0.6,30.00,WSW,248,3.8,3.8,60,0.00,FEW,,0.00,WeatherDisplay:10.37,2013-01-02 05:03:00,
2013-01-02 00:08:00,10.4,-0.8,30.00,WSW,248,3.5,3.5,60,0.00,FEW,,0.00,WeatherDisplay:10.37,2013-01-02 05:08:00,
2013-01-02 00:13:00,10.4,-0.8,30.00,SW,225,3.5,3.5,60,0.00,FEW,,0.00,WeatherDisplay:10.37,2013-01-02 05:13:00,
2013-01-02 00:18:00,10.4,-0.8,30.00,SW,225,3.5,3.5,60,0.00,FEW,,0.00,WeatherDisplay:10.37,2013-01-02 05:18:00,
2013-01-02 00:24:00,10.4,-0.8,29.97,WSW,248,2.3,2.3,60,0.00,FEW,,0.00,WeatherDisplay:10.37,2013-01-02 05:24:00,
2013-01-02 00:29:00,10.8,-0.4,29.97,WSW,248,2.3,2.3,60,0.00,FEW,,0.00,WeatherDisplay:10.37,2013-01-02 05:29:00,
2013-01-02 00:34:00,10.9,-0.2,29.97,SW,225,2.9,2.9,60,0.00,FEW,,0.00,WeatherDisplay:10.37,2013-01-02 05:34:00,
2013-01-02 00:39:00,11.1,-0.1,29.94,WSW,248,4.6,4.6,60,0.00,FEW,,0.00,WeatherDisplay:10.37,2013-01-02 05:39:00,
2013-01-02 00:44:00,11.3,0.1,29.94,SSW,202,4.6,4.6,60,0.00,FEW,,0.00,WeatherDisplay:10.37,2013-01-02 05:44:00,
2013-01-02 00:49:00,11.5,0.3,29.94,West,270,4.6,4.6,60,0.00,FEW,,0.00,WeatherDisplay:10.37,2013-01-02 05:49:00,
2013-01-02 00:54:00,11.8,0.6,29.97,SW,225,3.5,3.5,60,0.00,FEW,,0.00,WeatherDisplay:10.37,2013-01-02 05:54:00,
2013-01-02 01:00:00,12.0,0.8,29.97,WNW,292,3.5,3.5,60,0.00,FEW,,0.00,WeatherDisplay:10.37,2013-01-02 06:00:00,
2013-01-02 01:05:00,12.4,1.1,29.97,SSE,158,2.3,2.3,60,0.00,FEW,,0.00,WeatherDisplay:10.37,2013-01-02 06:05:00,
2013-01-02 01:10:00,12.7,1.5,29.97,WSW,248,5.8,5.8,60,0.00,FEW,,0.00,WeatherDisplay:10.37,2013-01-02 06:10:00,
2013-01-02 01:15:00,12.9,1.6,29.97,WSW,248,5.4,5.4,60,0.00,FEW,,0.00,WeatherDisplay:10.37,2013-01-02 06:15:00,
2013-01-02 01:20:00,13.3,5.3,29.97,WSW,248,3.6,3.6,70,0.00,FEW,,0.00,WeatherDisplay:10.37,2013-01-02 06:20:00,
2013-01-02 01:26:00,13.6,5.7,29.97,WSW,248,7.6,7.6,70,0.00,FEW,,0.00,WeatherDisplay:10.37,2013-01-02 06:26:00,
2013-01-02 01:31:00,14.0,6.0,29.97,WSW,248,4.6,4.6,70,0.00,FEW,,0.00,WeatherDisplay:10.37,2013-01-02 06:31:00,
2013-01-02 01:36:00,14.2,5.9,29.97,SSW,202,4.6,4.6,69,0.00,FEW,,0.00,WeatherDisplay:10.37,2013-01-02 06:36:00,
2013-01-02 01:41:00,14.4,6.0,29.97,SSW,202,5.8,5.8,69,0.00,FEW,,0.00,WeatherDisplay:10.37,2013-01-02 06:41:00,
2013-01-02 01:46:00,14.2,5.5,29.97,SW,225,2.4,2.4,68,0.00,FEW,,0.00,WeatherDisplay:10.37,2013-01-02 06:46:00,
2013-01-02 01:51:00,14.2,5.2,29.97,SW,225,4.6,4.6,67,0.00,FEW,,0.00,WeatherDisplay:10.37,2013-01-02 06:51:00,
2013-01-02 01:57:00,14.2,5.2,29.97,SW,225,3.5,3.8,67,0.00,FEW,,0.00,WeatherDisplay:10.37,2013-01-02 06:57:00,
2013-01-02 02:02:00,14.2,5.2,29.97,SW,225,4.6,4.6,67,0.00,-SN,,0.00,WeatherDisplay:10.37,2013-01-02 07:02:00,
2013-01-02 02:07:00,14.4,5.4,29.97,WSW,248,2.4,2.9,67,0.00,-SN,,0.00,WeatherDisplay:10.37,2013-01-02 07:07:00,
2013-01-02 02:12:00,14.7,6.1,29.97,NNW,338,5.8,5.8,68,0.00,-SN,,0.00,WeatherDisplay:10.37,2013-01-02 07:12:00,
2013-01-02 02:18:00,15.1,6.1,29.97,WSW,248,3.8,3.8,67,0.00,-SN,,0.00,WeatherDisplay:10.37,2013-01-02 07:18:00,
2013-01-02 02:23:00,15.4,6.4,29.97,West,270,8.1,8.1,67,0.00,-SN,,0.00,WeatherDisplay:10.37,2013-01-02 07:23:00,
2013-01-02 02:28:00,15.8,6.4,29.97,WSW,248,4.6,4.6,66,0.00,-SN,,0.00,WeatherDisplay:10.37,2013-01-02 07:28:00,
2013-01-02 02:33:00,15.8,6.4,29.97,SSW,202,4.6,4.6,66,0.00,-SN,,0.00,WeatherDisplay:10.37,2013-01-02 07:33:00,
2013-01-02 02:38:00,15.6,5.9,29.97,West,270,5.8,5.8,65,0.00,-SN,,0.00,WeatherDisplay:10.37,2013-01-02 07:38:00,
2013-01-02 02:44:00,15.6,5.9,29.97,SW,225,3.5,3.5,65,0.00,-SN,,0.00,WeatherDisplay:10.37,2013-01-02 07:44:00,
2013-01-02 02:49:00,15.4,5.8,29.97,WSW,248,3.5,3.5,65,0.00,-SN,,0.00,WeatherDisplay:10.37,2013-01-02 07:49:00,
2013-01-02 02:54:00,15.4,5.8,29.97,WSW,248,5.9,5.9,65,0.00,-SN,,0.00,WeatherDisplay:10.37,2013-01-02 07:54:00,
2013-01-02 03:00:00,15.6,5.9,29.97,SW,225,5.8,5.8,65,0.00,-SN,,0.00,WeatherDisplay:10.37,2013-01-02 08:00:00,
2013-01-02 03:05:00,15.8,6.1,29.97,SSW,202,5.8,5.8,65,0.00,OVC,,0.00,WeatherDisplay:10.37,2013-01-02 08:05:00,
2013-01-02 03:10:00,16.2,6.5,29.97,WSW,248,5.8,5.8,65,0.00,OVC,,0.00,WeatherDisplay:10.37,2013-01-02 08:10:00,
2013-01-02 03:15:00,16.3,6.6,29.97,SSW,202,5.6,5.6,65,0.00,OVC,,0.00,WeatherDisplay:10.37,2013-01-02 08:15:00,
2013-01-02 03:20:00,16.5,6.8,29.97,WSW,248,4.6,4.6,65,0.00,OVC,,0.00,WeatherDisplay:10.37,2013-01-02 08:20:00,
2013-01-02 03:25:00,16.7,7.0,29.97,West,270,5.8,5.8,65,0.00,OVC,,0.00,WeatherDisplay:10.37,2013-01-02 08:25:00,
2013-01-02 03:31:00,16.7,6.6,29.97,West,270,7.8,7.8,64,0.00,OVC,,0.00,WeatherDisplay:10.37,2013-01-02 08:31:00,
2013-01-02 03:36:00,16.7,6.6,29.97,WSW,248,6.9,6.9,64,0.00,OVC,,0.00,WeatherDisplay:10.37,2013-01-02 08:36:00,
2013-01-02 03:41:00,16.7,6.6,29.97,WSW,248,5.8,5.8,64,0.00,OVC,,0.00,WeatherDisplay:10.37,2013-01-02 08:41:00,
2013-01-02 03:46:00,16.7,6.6,29.97,WSW,248,7.8,7.8,64,0.00,OVC,,0.00,WeatherDisplay:10.37,2013-01-02 08:46:00,
2013-01-02 03:51:00,16.7,6.6,29.97,WNW,292,5.8,5.8,64,0.00,OVC,,0.00,WeatherDisplay:10.37,2013-01-02 08:51:00,
2013-01-02 03:56:00,16.9,6.8,29.97,WSW,248,8.1,8.1,64,0.00,OVC,,0.00,WeatherDisplay:10.37,2013-01-02 08:56:00,
2013-01-02 04:01:00,17.1,7.0,29.97,WSW,248,4.6,4.6,64,0.00,OVC,,0.00,WeatherDisplay:10.37,2013-01-02 09:01:00,
2013-01-02 04:07:00,17.2,7.1,29.94,WNW,292,6.4,6.4,64,0.00,OVC,,0.00,WeatherDisplay:10.37,2013-01-02 09:07:00,
2013-01-02 04:12:00,17.4,7.3,29.94,West,270,4.6,4.6,64,0.00,OVC,,0.00,WeatherDisplay:10.37,2013-01-02 09:12:00,
2013-01-02 04:17:00,17.6,7.5,29.94,WSW,248,4.6,4.6,64,0.00,OVC,,0.00,WeatherDisplay:10.37,2013-01-02 09:17:00,
2013-01-02 04:22:00,17.8,7.7,29.94,SW,225,4.6,4.6,64,0.00,OVC,,0.00,WeatherDisplay:10.37,2013-01-02 09:22:00,
2013-01-02 04:28:00,17.8,8.0,29.94,WSW,248,5.8,5.8,65,0.00,OVC,,0.00,WeatherDisplay:10.37,2013-01-02 09:28:00,
2013-01-02 04:33:00,18.1,8.3,29.94,WNW,292,4.6,4.6,65,0.00,OVC,,0.00,WeatherDisplay:10.37,2013-01-02 09:33:00,
2013-01-02 04:38:00,18.1,8.3,29.97,WSW,248,5.8,5.8,65,0.00,OVC,,0.00,WeatherDisplay:10.37,2013-01-02 09:38:00,
2013-01-02 04:43:00,18.3,8.5,29.97,West,270,8.1,8.1,65,0.00,OVC,,0.00,WeatherDisplay:10.37,2013-01-02 09:43:00,
2013-01-02 04:48:00,18.3,8.5,29.97,WSW,248,4.6,4.6,65,0.00,OVC,,0.00,WeatherDisplay:10.37,2013-01-02 09:48:00,
2013-01-02 04:54:00,18.5,8.7,29.97,WNW,292,4.9,4.9,65,0.00,OVC,,0.00,WeatherDisplay:10.37,2013-01-02 09:54:00,
2013-01-02 04:59:00,18.5,8.7,29.97,WNW,292,3.5,3.5,65,0.00,OVC,,0.00,WeatherDisplay:10.37,2013-01-02 09:59:00,
2013-01-02 05:04:00,18.5,8.7,29.97,WSW,248,4.6,4.6,65,0.00,BKN,,0.00,WeatherDisplay:10.37,2013-01-02 10:04:00,
2013-01-02 05:09:00,18.5,8.7,29.97,WSW,248,3.5,3.5,65,0.00,BKN,,0.00,WeatherDisplay:10.37,2013-01-02 10:09:00,
2013-01-02 05:14:00,18.7,8.9,29.97,West,270,4.6,4.6,65,0.00,BKN,,0.00,WeatherDisplay:10.37,2013-01-02 10:14:00,
2013-01-02 05:19:00,18.7,8.9,29.97,West,270,4.9,4.9,65,0.00,BKN,,0.00,WeatherDisplay:10.37,2013-01-02 10:19:00,
2013-01-02 05:24:00,18.9,9.0,29.94,WSW,248,5.8,5.8,65,0.00,BKN,,0.00,WeatherDisplay:10.37,2013-01-02 10:24:00,
2013-01-02 05:29:00,18.9,9.0,29.94,SSW,202,5.8,5.8,65,0.00,BKN,,0.00,WeatherDisplay:10.37,2013-01-02 10:29:00,
2013-01-02 05:35:00,18.7,8.9,29.97,WSW,248,7.8,7.8,65,0.00,BKN,,0.00,WeatherDisplay:10.37,2013-01-02 10:35:00,
2013-01-02 05:40:00,18.5,8.7,29.97,WSW,248,6.9,6.9,65,0.00,BKN,,0.00,WeatherDisplay:10.37,2013-01-02 10:40:00,
2013-01-02 05:45:00,18.3,8.5,29.97,SW,225,5.8,5.8,65,0.00,BKN,,0.00,WeatherDisplay:10.37,2013-01-02 10:45:00,
2013-01-02 05:50:00,18.5,8.7,29.94,WNW,292,6.9,6.9,65,0.00,BKN,,0.00,WeatherDisplay:10.37,2013-01-02 10:50:00,
2013-01-02 05:55:00,18.7,8.5,29.94,WNW,292,6.9,6.9,64,0.00,BKN,,0.00,WeatherDisplay:10.37,2013-01-02 10:55:00,
2013-01-02 06:01:00,18.9,8.7,29.94,WSW,248,9.2,9.2,64,0.00,-SN,,0.00,WeatherDisplay:10.37,2013-01-02 11:01:00,
2013-01-02 06:06:00,19.0,8.5,29.97,WSW,248,6.9,6.9,63,0.00,-SN,,0.00,WeatherDisplay:10.37,2013-01-02 11:06:00,
2013-01-02 06:11:00,19.2,8.3,29.97,WNW,292,5.8,5.8,62,0.00,-SN,,0.00,WeatherDisplay:10.37,2013-01-02 11:11:00,
2013-01-02 06:16:00,19.4,8.5,29.97,WNW,292,9.0,9.0,62,0.00,-SN,,0.00,WeatherDisplay:10.37,2013-01-02 11:16:00,
2013-01-02 06:21:00,19.6,8.3,29.97,WNW,292,9.2,9.2,61,0.00,-SN,,0.00,WeatherDisplay:10.37,2013-01-02 11:21:00,
2013-01-02 06:26:00,19.8,8.5,29.97,WNW,292,10.4,10.4,61,0.00,-SN,,0.00,WeatherDisplay:10.37,2013-01-02 11:26:00,
2013-01-02 06:31:00,19.9,8.3,29.97,WNW,292,11.5,11.5,60,0.00,-SN,,0.00,WeatherDisplay:10.37,2013-01-02 11:31:00,
2013-01-02 06:37:00,20.1,8.4,29.97,WSW,248,8.1,8.1,60,0.00,-SN,,0.00,WeatherDisplay:10.37,2013-01-02 11:37:00,
2013-01-02 06:42:00,20.1,8.4,29.97,WNW,292,11.5,11.5,60,0.00,-SN,,0.00,WeatherDisplay:10.37,2013-01-02 11:42:00,
2013-01-02 06:47:00,20.3,8.6,29.97,WNW,292,6.9,6.9,60,0.00,-SN,,0.00,WeatherDisplay:10.37,2013-01-02 11:47:00,
2013-01-02 06:52:00,20.3,8.6,29.97,WNW,292,14.7,14.7,60,0.00,-SN,,0.00,WeatherDisplay:10.37,2013-01-02 11:52:00,
2013-01-02 06:57:00,20.5,8.8,29.97,NW,315,8.1,8.1,60,0.00,-SN,,0.00,WeatherDisplay:10.37,2013-01-02 11:57:00,
2013-01-02 07:02:00,20.5,8.8,29.97,NW,315,6.9,6.9,60,0.00,-SN,,0.00,WeatherDisplay:10.37,2013-01-02 12:02:00,
2013-01-02 07:08:00,20.7,8.6,29.97,WNW,292,10.4,10.4,59,0.00,-SN,,0.00,WeatherDisplay:10.37,2013-01-02 12:08:00,
2013-01-02 07:13:00,20.7,8.6,29.97,NW,315,14.3,14.3,59,0.00,-SN,,0.00,WeatherDisplay:10.37,2013-01-02 12:13:00,
2013-01-02 07:18:00,20.7,8.6,29.97,WNW,292,15.0,15.0,59,0.00,-SN,,0.00,WeatherDisplay:10.37,2013-01-02 12:18:00,
2013-01-02 07:23:00,20.8,8.7,29.97,WNW,292,5.8,7.4,59,0.00,-SN,,0.00,WeatherDisplay:10.37,2013-01-02 12:23:00,
2013-01-02 07:29:00,20.8,8.7,29.97,West,270,10.4,10.4,59,0.00,-SN,,0.00,WeatherDisplay:10.37,2013-01-02 12:29:00,
2013-01-02 07:34:00,21.0,8.5,29.97,WNW,292,13.8,13.8,58,0.00,-SN,,0.00,WeatherDisplay:10.37,2013-01-02 12:34:00,
2013-01-02 07:39:00,21.0,8.5,29.97,WSW,248,12.7,12.7,58,0.00,-SN,,0.00,WeatherDisplay:10.37,2013-01-02 12:39:00,
2013-01-02 07:44:00,21.0,8.5,29.97,WNW,292,4.6,4.6,58,0.00,-SN,,0.00,WeatherDisplay:10.37,2013-01-02 12:44:00,
2013-01-02 07:50:00,21.2,8.7,29.97,SSW,202,8.1,8.1,58,0.00,-SN,,0.00,WeatherDisplay:10.37,2013-01-02 12:50:00,
2013-01-02 07:55:00,21.2,8.3,29.97,NW,315,9.2,9.2,57,0.00,-SN,,0.00,WeatherDisplay:10.37,2013-01-02 12:55:00,
2013-01-02 08:00:00,21.4,8.1,29.97,WNW,292,6.9,6.9,56,0.00,-SN,,0.00,WeatherDisplay:10.37,2013-01-02 13:00:00,
2013-01-02 08:05:00,21.6,8.3,29.97,WNW,292,5.9,6.2,56,0.00,-SN,,0.00,WeatherDisplay:10.37,2013-01-02 13:05:00,
2013-01-02 08:11:00,21.7,8.4,29.97,NNW,338,9.2,9.2,56,0.00,-SN,,0.00,WeatherDisplay:10.37,2013-01-02 13:11:00,
2013-01-02 08:16:00,21.9,8.2,29.97,WNW,292,8.1,8.1,55,0.00,-SN,,0.00,WeatherDisplay:10.37,2013-01-02 13:16:00,
2013-01-02 08:21:00,22.1,8.4,29.97,WSW,248,8.1,8.1,55,0.00,-SN,,0.00,WeatherDisplay:10.37,2013-01-02 13:21:00,
2013-01-02 08:26:00,22.3,8.1,29.97,WNW,292,8.1,8.1,54,0.00,-SN,,0.00,WeatherDisplay:10.37,2013-01-02 13:26:00,
2013-01-02 08:32:00,22.5,8.3,29.97,West,270,5.8,5.8,54,0.00,-SN,,0.00,WeatherDisplay:10.37,2013-01-02 13:32:00,
2013-01-02 08:37:00,22.6,8.5,29.97,West,270,6.9,6.9,54,0.00,-SN,,0.00,WeatherDisplay:10.37,2013-01-02 13:37:00,
2013-01-02 08:42:00,22.8,8.6,29.97,WNW,292,8.1,8.1,54,0.00,-SN,,0.00,WeatherDisplay:10.37,2013-01-02 13:42:00,
2013-01-02 08:47:00,23.0,8.4,29.97,West,270,8.1,8.1,53,0.00,-SN,,0.00,WeatherDisplay:10.37,2013-01-02 13:47:00,
2013-01-02 08:53:00,23.4,8.7,30.00,NNW,338,9.8,9.8,53,0.00,-SN,,0.00,WeatherDisplay:10.37,2013-01-02 13:53:00,
2013-01-02 08:58:00,23.5,8.5,30.00,WNW,292,12.7,12.7,52,0.00,-SN,,0.00,WeatherDisplay:10.37,2013-01-02 13:58:00,
2013-01-02 09:03:00,23.5,8.9,30.00,NNW,338,10.7,10.7,53,0.00,-SN,,0.00,WeatherDisplay:10.37,2013-01-02 14:03:00,
2013-01-02 09:08:00,23.7,8.6,30.00,WNW,292,10.4,10.4,52,0.00,-SN,,0.00,WeatherDisplay:10.37,2013-01-02 14:08:00,
2013-01-02 09:13:00,23.9,8.8,30.00,NW,315,5.8,5.8,52,0.00,-SN,,0.00,WeatherDisplay:10.37,2013-01-02 14:13:00,
2013-01-02 09:19:00,24.1,9.0,30.00,WNW,292,6.9,6.9,52,0.00,-SN,,0.00,WeatherDisplay:10.37,2013-01-02 14:19:00,
2013-01-02 09:24:00,24.3,9.1,30.00,WNW,292,10.4,10.4,52,0.00,-SN,,0.00,WeatherDisplay:10.37,2013-01-02 14:24:00,
2013-01-02 09:29:00,24.3,8.7,30.00,West,270,15.0,15.0,51,0.00,-SN,,0.00,WeatherDisplay:10.37,2013-01-02 14:29:00,
2013-01-02 09:34:00,24.4,9.3,30.00,WNW,292,11.5,11.5,52,0.00,-SN,,0.00,WeatherDisplay:10.37,2013-01-02 14:34:00,
2013-01-02 09:39:00,24.6,9.5,30.00,WNW,292,8.1,8.1,52,0.00,-SN,,0.00,WeatherDisplay:10.37,2013-01-02 14:39:00,
2013-01-02 09:45:00,24.6,9.5,30.00,WNW,292,15.0,15.0,52,0.00,-SN,,0.00,WeatherDisplay:10.37,2013-01-02 14:45:00,
2013-01-02 09:50:00,24.6,9.0,30.03,WNW,292,8.1,8.1,51,0.00,-SN,,0.00,WeatherDisplay:10.37,2013-01-02 14:50:00,
2013-01-02 09:55:00,24.8,9.6,30.03,NNW,338,6.0,6.0,52,0.00,-SN,,0.00,WeatherDisplay:10.37,2013-01-02 14:55:00,
2013-01-02 10:00:00,25.2,10.0,30.03,WNW,292,5.4,5.4,52,0.00,OVC,,0.00,WeatherDisplay:10.37,2013-01-02 15:00:00,
2013-01-02 10:05:00,25.2,9.5,30.03,WSW,248,8.1,8.1,51,0.00,OVC,,0.00,WeatherDisplay:10.37,2013-01-02 15:05:00,
2013-01-02 10:11:00,25.2,9.5,30.03,West,270,9.2,9.2,51,0.00,OVC,,0.00,WeatherDisplay:10.37,2013-01-02 15:11:00,
2013-01-02 10:16:00,25.5,9.9,30.03,WSW,248,5.8,5.8,51,0.00,OVC,,0.00,WeatherDisplay:10.37,2013-01-02 15:16:00,
2013-01-02 10:21:00,25.7,10.0,30.03,NW,315,8.1,8.1,51,0.00,OVC,,0.00,WeatherDisplay:10.37,2013-01-02 15:21:00,
2013-01-02 10:26:00,25.7,10.0,30.03,WSW,248,8.1,8.1,51,0.00,OVC,,0.00,WeatherDisplay:10.37,2013-01-02 15:26:00,
2013-01-02 10:32:00,25.7,10.0,30.03,WNW,292,5.8,5.8,51,0.00,OVC,,0.00,WeatherDisplay:10.37,2013-01-02 15:32:00,
2013-01-02 10:37:00,25.9,10.2,30.03,WSW,248,6.9,6.9,51,0.00,OVC,,0.00,WeatherDisplay:10.37,2013-01-02 15:37:00,
2013-01-02 10:42:00,25.3,10.1,30.03,WNW,292,6.9,6.9,52,0.00,OVC,,0.00,WeatherDisplay:10.37,2013-01-02 15:42:00,
2013-01-02 10:47:00,25.2,10.4,30.03,WNW,292,9.2,9.2,53,0.00,OVC,,0.00,WeatherDisplay:10.37,2013-01-02 15:47:00,
2013-01-02 10:52:00,25.2,10.4,30.03,NNW,338,8.1,8.1,53,0.00,OVC,,0.00,WeatherDisplay:10.37,2013-01-02 15:52:00,
2013-01-02 10:57:00,25.2,10.8,30.03,SW,225,11.5,11.5,54,0.00,OVC,,0.00,WeatherDisplay:10.37,2013-01-02 15:57:00,
2013-01-02 11:03:00,25.3,11.0,30.03,WNW,292,8.1,8.1,54,0.00,-SN,,0.00,WeatherDisplay:10.37,2013-01-02 16:03:00,
2013-01-02 11:08:00,25.5,11.2,30.03,WSW,248,12.7,12.7,54,0.00,-SN,,0.00,WeatherDisplay:10.37,2013-01-02 16:08:00,
2013-01-02 11:13:00,25.5,11.2,30.03,WNW,292,12.7,12.7,54,0.00,-SN,,0.00,WeatherDisplay:10.37,2013-01-02 16:13:00,
2013-01-02 11:18:00,25.5,11.6,30.03,WNW,292,3.5,3.8,55,0.00,-SN,,0.00,WeatherDisplay:10.37,2013-01-02 16:18:00,
2013-01-02 11:24:00,25.5,11.6,30.03,WNW,292,10.4,10.4,55,0.00,-SN,,0.00,WeatherDisplay:10.37,2013-01-02 16:24:00,
2013-01-02 11:29:00,25.5,11.6,30.03,WNW,292,8.1,8.1,55,0.00,-SN,,0.00,WeatherDisplay:10.37,2013-01-02 16:29:00,
2013-01-02 11:34:00,25.7,11.7,30.03,WNW,292,11.5,11.5,55,0.00,-SN,,0.00,WeatherDisplay:10.37,2013-01-02 16:34:00,
2013-01-02 11:39:00,26.1,11.7,30.00,NNW,338,5.8,5.8,54,0.00,-SN,,0.00,WeatherDisplay:10.37,2013-01-02 16:39:00,
2013-01-02 11:44:00,26.1,11.7,30.00,WNW,292,10.7,10.7,54,0.00,-SN,,0.00,WeatherDisplay:10.37,2013-01-02 16:44:00,
2013-01-02 11:50:00,26.1,12.1,30.00,NW,315,6.2,6.2,55,0.00,-SN,,0.00,WeatherDisplay:10.37,2013-01-02 16:50:00,
2013-01-02 11:55:00,26.1,12.1,30.00,West,270,8.1,8.1,55,0.00,-SN,,0.00,WeatherDisplay:10.37,2013-01-02 16:55:00,
2013-01-02 12:00:00,26.1,12.5,30.00,WNW,292,10.4,10.4,56,0.00,-SN,,0.00,WeatherDisplay:10.37,2013-01-02 17:00:00,
2013-01-02 12:05:00,26.1,12.9,30.03,NNW,338,5.8,5.8,57,0.00,-SN,,0.00,WeatherDisplay:10.37,2013-01-02 17:05:00,
2013-01-02 12:10:00,25.9,12.7,30.03,NNW,338,12.7,12.7,57,0.00,-SN,,0.00,WeatherDisplay:10.37,2013-01-02 17:10:00,
2013-01-02 12:16:00,25.9,13.1,30.03,WNW,292,8.1,8.1,58,0.00,-SN,,0.00,WeatherDisplay:10.37,2013-01-02 17:16:00,
2013-01-02 12:21:00,25.9,13.5,30.03,NNW,338,10.4,10.4,59,0.00,-SN,,0.00,WeatherDisplay:10.37,2013-01-02 17:21:00,
2013-01-02 12:26:00,25.9,13.5,30.03,WNW,292,8.1,8.1,59,0.00,-SN,,0.00,WeatherDisplay:10.37,2013-01-02 17:26:00,
2013-01-02 12:31:00,26.2,13.8,30.03,NW,315,5.4,5.4,59,0.00,-SN,,0.00,WeatherDisplay:10.37,2013-01-02 17:31:00,
2013-01-02 12:36:00,26.2,13.8,30.03,WNW,292,8.1,8.1,59,0.00,-SN,,0.00,WeatherDisplay:10.37,2013-01-02 17:36:00,
2013-01-02 12:41:00,26.6,14.2,30.03,WNW,292,7.4,7.4,59,0.00,-SN,,0.00,WeatherDisplay:10.37,2013-01-02 17:41:00,
2013-01-02 12:47:00,26.6,14.2,30.03,WSW,248,12.7,12.7,59,0.00,-SN,,0.00,WeatherDisplay:10.37,2013-01-02 17:47:00,
2013-01-02 12:52:00,26.4,14.0,30.03,NNW,338,10.4,10.4,59,0.00,-SN,,0.00,WeatherDisplay:10.37,2013-01-02 17:52:00,
2013-01-02 12:57:00,26.6,14.2,30.03,NW,315,11.5,11.5,59,0.00,-SN,,0.00,WeatherDisplay:10.37,2013-01-02 17:57:00,
2013-01-02 13:02:00,26.6,13.8,30.03,WNW,292,10.4,10.4,58,0.00,-SN,,0.00,WeatherDisplay:10.37,2013-01-02 18:02:00,
2013-01-02 13:07:00,26.8,14.0,30.03,NNW,338,10.4,10.4,58,0.00,-SN,,0.00,WeatherDisplay:10.37,2013-01-02 18:07:00,
2013-01-02 13:12:00,27.0,14.1,30.03,WNW,292,8.1,8.1,58,0.00,-SN,,0.00,WeatherDisplay:10.37,2013-01-02 18:12:00,
2013-01-02 13:18:00,27.0,14.1,30.03,NNW,338,6.9,6.9,58,0.00,-SN,,0.00,WeatherDisplay:10.37,2013-01-02 18:18:00,
2013-01-02 13:23:00,27.0,13.7,30.03,WSW,248,9.2,9.2,57,0.00,-SN,,0.00,WeatherDisplay:10.37,2013-01-02 18:23:00,
2013-01-02 13:28:00,27.0,14.1,30.03,WNW,292,4.9,4.9,58,0.00,-SN,,0.00,WeatherDisplay:10.37,2013-01-02 18:28:00,
2013-01-02 13:33:00,27.1,14.3,30.03,WNW,292,8.1,8.1,58,0.00,-SN,,0.00,WeatherDisplay:10.37,2013-01-02 18:33:00,
2013-01-02 13:38:00,27.1,13.9,30.03,WNW,292,13.0,13.0,57,0.00,-SN,,0.00,WeatherDisplay:10.37,2013-01-02 18:38:00,
2013-01-02 13:43:00,27.1,13.9,30.03,WNW,292,5.8,5.8,57,0.00,-SN,,0.00,WeatherDisplay:10.37,2013-01-02 18:43:00,
2013-01-02 13:49:00,27.1,13.5,30.03,WNW,292,6.9,6.9,56,0.00,-SN,,0.00,WeatherDisplay:10.37,2013-01-02 18:49:00,
2013-01-02 13:54:00,27.1,13.1,30.03,NNW,338,9.2,9.2,55,0.00,-SN,,0.00,WeatherDisplay:10.37,2013-01-02 18:54:00,
2013-01-02 13:59:00,27.1,13.5,30.03,WNW,292,5.8,5.8,56,0.00,-SN,,0.00,WeatherDisplay:10.37,2013-01-02 18:59:00,
2013-01-02 14:04:00,27.1,13.1,30.03,WNW,292,6.9,6.9,55,0.00,-SN,,0.00,WeatherDisplay:10.37,2013-01-02 19:04:00,
2013-01-02 14:09:00,27.1,13.1,30.03,WNW,292,5.8,6.7,55,0.00,-SN,,0.00,WeatherDisplay:10.37,2013-01-02 19:09:00,
2013-01-02 14:15:00,27.0,12.9,30.03,West,270,5.8,5.8,55,0.00,-SN,,0.00,WeatherDisplay:10.37,2013-01-02 19:15:00,
2013-01-02 14:20:00,27.0,12.9,30.03,WNW,292,10.4,10.4,55,0.00,-SN,,0.00,WeatherDisplay:10.37,2013-01-02 19:20:00,
2013-01-02 14:25:00,27.0,12.9,30.03,WNW,292,7.4,7.4,55,0.00,-SN,,0.00,WeatherDisplay:10.37,2013-01-02 19:25:00,
2013-01-02 14:30:00,26.6,12.6,30.03,WNW,292,10.4,10.4,55,0.00,-SN,,0.00,WeatherDisplay:10.37,2013-01-02 19:30:00,
2013-01-02 14:35:00,26.6,12.6,30.03,SW,225,6.9,6.9,55,0.00,-SN,,0.00,WeatherDisplay:10.37,2013-01-02 19:35:00,
2013-01-02 14:40:00,26.6,13.0,30.03,WNW,292,7.6,7.6,56,0.00,-SN,,0.00,WeatherDisplay:10.37,2013-01-02 19:40:00,
2013-01-02 14:46:00,26.6,13.0,30.03,NW,315,9.2,9.2,56,0.00,-SN,,0.00,WeatherDisplay:10.37,2013-01-02 19:46:00,
2013-01-02 14:51:00,26.6,13.0,30.03,WNW,292,6.2,6.2,56,0.00,-SN,,0.00,WeatherDisplay:10.37,2013-01-02 19:51:00,
2013-01-02 14:56:00,26.4,12.8,30.03,WNW,292,6.2,7.1,56,0.00,-SN,,0.00,WeatherDisplay:10.37,2013-01-02 19:56:00,
2013-01-02 15:01:00,26.6,13.0,30.03,NNW,338,4.6,4.7,56,0.00,-SN,,0.00,WeatherDisplay:10.37,2013-01-02 20:01:00,
2013-01-02 15:06:00,26.6,13.0,30.06,NNE,22,8.1,8.1,56,0.00,-SN,,0.00,WeatherDisplay:10.37,2013-01-02 20:06:00,
2013-01-02 15:11:00,26.4,13.2,30.06,NW,315,5.8,5.8,57,0.00,-SN,,0.00,WeatherDisplay:10.37,2013-01-02 20:11:00,
2013-01-02 15:16:00,26.4,13.2,30.06,WNW,292,6.9,6.9,57,0.00,-SN,,0.00,WeatherDisplay:10.37,2013-01-02 20:16:00,
2013-01-02 15:22:00,26.2,13.5,30.09,NNW,338,8.1,8.1,58,0.00,-SN,,0.00,WeatherDisplay:10.37,2013-01-02 20:22:00,
2013-01-02 15:27:00,26.2,13.5,30.09,North,0,5.8,5.8,58,0.00,-SN,,0.00,WeatherDisplay:10.37,2013-01-02 20:27:00,
2013-01-02 15:32:00,26.1,14.1,30.09,NNE,22,5.8,5.8,60,0.00,-SN,,0.00,WeatherDisplay:10.37,2013-01-02 20:32:00,
2013-01-02 15:37:00,25.9,14.6,30.09,North,0,4.6,4.6,62,0.00,-SN,,0.00,WeatherDisplay:10.37,2013-01-02 20:37:00,
2013-01-02 15:42:00,25.3,16.2,30.09,North,0,5.8,5.9,68,0.00,-SN,,0.00,WeatherDisplay:10.37,2013-01-02 20:42:00,
2013-01-02 15:48:00,25.2,16.1,30.09,NNW,338,4.6,4.6,68,0.00,-SN,,0.00,WeatherDisplay:10.37,2013-01-02 20:48:00,
2013-01-02 15:53:00,25.2,16.7,30.09,North,0,5.8,5.8,70,0.00,-SN,,0.00,WeatherDisplay:10.37,2013-01-02 20:53:00,
2013-01-02 15:58:00,24.8,16.7,30.09,NNW,338,3.5,3.8,71,0.00,-SN,,0.00,WeatherDisplay:10.37,2013-01-02 20:58:00,
2013-01-02 16:03:00,24.6,16.9,30.09,NNE,22,3.5,3.5,72,0.00,-SN,,0.00,WeatherDisplay:10.37,2013-01-02 21:03:00,
2013-01-02 16:08:00,24.6,16.9,30.09,NNE,22,2.3,2.3,72,0.00,-SN,,0.00,WeatherDisplay:10.37,2013-01-02 21:08:00,
2013-01-02 16:14:00,24.4,17.0,30.09,NNE,22,2.3,2.3,73,0.00,-SN,,0.00,WeatherDisplay:10.37,2013-01-02 21:14:00,
2013-01-02 16:19:00,24.4,17.0,30.09,NE,45,2.3,2.3,73,0.00,-SN,,0.00,WeatherDisplay:10.37,2013-01-02 21:19:00,
2013-01-02 16:24:00,24.4,17.0,30.09,ENE,68,0.0,0.0,73,0.00,-SN,,0.00,WeatherDisplay:10.37,2013-01-02 21:24:00,
2013-01-02 16:29:00,24.4,17.6,30.09,ENE,68,4.6,4.7,75,0.00,-SN,,0.00,WeatherDisplay:10.37,2013-01-02 21:29:00,
2013-01-02 16:34:00,24.3,17.5,30.09,ENE,68,4.6,4.6,75,0.00,-SN,,0.00,WeatherDisplay:10.37,2013-01-02 21:34:00,
2013-01-02 16:39:00,24.1,17.3,30.09,ENE,68,3.5,3.5,75,0.00,-SN,,0.00,WeatherDisplay:10.37,2013-01-02 21:39:00,
2013-01-02 16:45:00,23.9,17.4,30.09,NE,45,2.3,2.6,76,0.00,-SN,,0.00,WeatherDisplay:10.37,2013-01-02 21:45:00,
2013-01-02 16:50:00,23.9,17.4,30.12,ENE,68,5.9,5.9,76,0.00,-SN,,0.00,WeatherDisplay:10.37,2013-01-02 21:50:00,
2013-01-02 16:55:00,23.7,17.9,30.12,East,90,4.6,4.6,78,0.00,-SN,,0.00,WeatherDisplay:10.37,2013-01-02 21:55:00,
2013-01-02 17:00:00,23.4,17.5,30.12,ESE,112,2.4,2.4,78,0.00,-SN,,0.00,WeatherDisplay:10.37,2013-01-02 22:00:00,
2013-01-02 17:05:00,23.2,17.0,30.12,SE,135,2.3,2.3,77,0.00,OVC,,0.00,WeatherDisplay:10.37,2013-01-02 22:05:00,
2013-01-02 17:10:00,22.8,16.7,30.12,ESE,112,3.8,3.8,77,0.00,OVC,,0.00,WeatherDisplay:10.37,2013-01-02 22:10:00,
2013-01-02 17:15:00,22.6,16.8,30.12,ENE,68,3.5,3.5,78,0.00,OVC,,0.00,WeatherDisplay:10.37,2013-01-02 22:15:00,
2013-01-02 17:21:00,22.5,16.6,30.12,ENE,68,2.3,2.3,78,0.00,OVC,,0.00,WeatherDisplay:10.37,2013-01-02 22:21:00,
2013-01-02 17:26:00,22.3,16.5,30.12,ENE,68,3.8,3.8,78,0.00,OVC,,0.00,WeatherDisplay:10.37,2013-01-02 22:26:00,
2013-01-02 17:31:00,21.9,16.4,30.12,ENE,68,5.8,5.8,79,0.00,OVC,,0.00,WeatherDisplay:10.37,2013-01-02 22:31:00,
2013-01-02 17:36:00,21.9,16.4,30.12,ENE,68,2.3,2.3,79,0.00,OVC,,0.00,WeatherDisplay:10.37,2013-01-02 22:36:00,
2013-01-02 17:41:00,21.7,16.2,30.12,SSE,158,2.3,2.3,79,0.00,OVC,,0.00,WeatherDisplay:10.37,2013-01-02 22:41:00,
2013-01-02 17:47:00,21.7,16.2,30.12,ESE,112,2.3,2.3,79,0.00,OVC,,0.00,WeatherDisplay:10.37,2013-01-02 22:47:00,
2013-01-02 17:52:00,21.7,16.2,30.12,SE,135,4.6,0.0,79,0.00,OVC,,0.00,WeatherDisplay:10.37,2013-01-02 22:52:00,
2013-01-02 17:57:00,21.6,16.1,30.12,ESE,112,3.1,3.1,79,0.00,OVC,,0.00,WeatherDisplay:10.37,2013-01-02 22:57:00,
2013-01-02 18:02:00,21.4,15.6,30.12,ESE,112,3.5,3.5,78,0.00,-SN,,0.00,WeatherDisplay:10.37,2013-01-02 23:02:00,
2013-01-02 18:07:00,21.2,15.4,30.12,ENE,68,2.3,2.3,78,0.00,-SN,,0.00,WeatherDisplay:10.37,2013-01-02 23:07:00,
2013-01-02 18:12:00,21.2,15.4,30.12,ENE,68,0.0,0.0,78,0.00,-SN,,0.00,WeatherDisplay:10.37,2013-01-02 23:12:00,
2013-01-02 18:17:00,21.2,15.7,30.12,ENE,68,4.6,4.6,79,0.00,-SN,,0.00,WeatherDisplay:10.37,2013-01-02 23:17:00,
2013-01-02 18:22:00,21.0,15.2,30.15,ESE,112,4.6,4.6,78,0.00,-SN,,0.00,WeatherDisplay:10.37,2013-01-02 23:22:00,
2013-01-02 18:28:00,20.8,15.1,30.15,ESE,112,4.6,4.6,78,0.00,-SN,,0.00,WeatherDisplay:10.37,2013-01-02 23:28:00,
2013-01-02 18:33:00,20.8,14.8,30.15,ESE,112,4.6,4.6,77,0.00,-SN,,0.00,WeatherDisplay:10.37,2013-01-02 23:33:00,
2013-01-02 18:38:00,20.7,14.6,30.12,ESE,112,3.5,3.5,77,0.00,-SN,,0.00,WeatherDisplay:10.37,2013-01-02 23:38:00,
2013-01-02 18:43:00,20.7,14.6,30.12,SSE,158,3.8,3.8,77,0.00,-SN,,0.00,WeatherDisplay:10.37,2013-01-02 23:43:00,
2013-01-02 18:48:00,20.7,14.6,30.12,ESE,112,2.2,0.0,77,0.00,-SN,,0.00,WeatherDisplay:10.37,2013-01-02 23:48:00,
2013-01-02 18:54:00,20.7,14.6,30.15,ESE,112,3.1,3.1,77,0.00,-SN,,0.00,WeatherDisplay:10.37,2013-01-02 23:54:00,
2013-01-02 18:59:00,20.5,14.7,30.15,East,90,3.5,3.5,78,0.00,-SN,,0.00,WeatherDisplay:10.37,2013-01-02 23:59:00,
2013-01-02 19:04:00,20.3,14.5,30.12,ESE,112,4.6,4.6,78,0.00,-SN,,0.00,WeatherDisplay:10.37,2013-01-03 00:04:00,
2013-01-02 19:09:00,20.3,14.5,30.12,SSE,158,4.6,4.6,78,0.00,-SN,,0.00,WeatherDisplay:10.37,2013-01-03 00:09:00,
2013-01-02 19:15:00,20.3,14.5,30.12,East,90,4.6,4.6,78,0.00,-SN,,0.00,WeatherDisplay:10.37,2013-01-03 00:15:00,
2013-01-02 19:20:00,20.3,14.5,30.12,ESE,112,2.4,2.4,78,0.00,-SN,,0.00,WeatherDisplay:10.37,2013-01-03 00:20:00,
2013-01-02 19:25:00,20.3,14.5,30.12,East,90,4.7,4.7,78,0.00,-SN,,0.00,WeatherDisplay:10.37,2013-01-03 00:25:00,
2013-01-02 19:30:00,20.3,14.5,30.12,ENE,68,2.3,2.3,78,0.00,-SN,,0.00,WeatherDisplay:10.37,2013-01-03 00:30:00,
2013-01-02 19:36:00,20.1,14.1,30.15,ENE,68,5.8,5.8,77,0.00,-SN,,0.00,WeatherDisplay:10.37,2013-01-03 00:36:00,
2013-01-02 19:41:00,20.1,14.1,30.15,ESE,112,4.6,4.6,77,0.00,-SN,,0.00,WeatherDisplay:10.37,2013-01-03 00:41:00,
2013-01-02 19:46:00,19.9,14.2,30.15,East,90,5.8,5.8,78,0.00,-SN,,0.00,WeatherDisplay:10.37,2013-01-03 00:46:00,
2013-01-02 19:51:00,19.9,14.2,30.15,ESE,112,4.6,4.6,78,0.00,-SN,,0.00,WeatherDisplay:10.37,2013-01-03 00:51:00,
2013-01-02 19:56:00,19.8,14.0,30.15,ESE,112,5.8,5.8,78,0.00,-SN,,0.00,WeatherDisplay:10.37,2013-01-03 00:56:00,
2013-01-02 20:01:00,19.6,13.8,30.15,ESE,112,6.9,6.9,78,0.00,-SN,,0.00,WeatherDisplay:10.37,2013-01-03 01:01:00,
2013-01-02 20:07:00,19.6,13.8,30.15,ENE,68,2.3,2.9,78,0.00,-SN,,0.00,WeatherDisplay:10.37,2013-01-03 01:07:00,
2013-01-02 20:12:00,19.6,13.5,30.15,ESE,112,3.5,3.5,77,0.00,-SN,,0.00,WeatherDisplay:10.37,2013-01-03 01:12:00,
2013-01-02 20:17:00,19.2,13.2,30.15,South,180,6.9,6.9,77,0.00,-SN,,0.00,WeatherDisplay:10.37,2013-01-03 01:17:00,
2013-01-02 20:22:00,19.0,13.0,30.12,SE,135,6.4,6.4,77,0.00,-SN,,0.00,WeatherDisplay:10.37,2013-01-03 01:22:00,
2013-01-02 20:27:00,18.9,12.5,30.12,ESE,112,9.2,9.2,76,0.00,-SN,,0.00,WeatherDisplay:10.37,2013-01-03 01:27:00,
2013-01-02 20:32:00,18.7,12.1,30.12,SSE,158,4.9,4.9,75,0.00,-SN,,0.00,WeatherDisplay:10.37,2013-01-03 01:32:00,
2013-01-02 20:38:00,18.7,12.1,30.12,East,90,3.6,3.6,75,0.00,-SN,,0.00,WeatherDisplay:10.37,2013-01-03 01:38:00,
2013-01-02 20:43:00,18.5,12.2,30.12,SSE,158,5.9,5.9,76,0.00,-SN,,0.00,WeatherDisplay:10.37,2013-01-03 01:43:00,
2013-01-02 20:48:00,18.1,11.5,30.12,ESE,112,6.9,6.9,75,0.00,-SN,,0.00,WeatherDisplay:10.37,2013-01-03 01:48:00,
2013-01-02 20:53:00,18.0,11.1,30.15,East,90,4.6,4.6,74,0.00,-SN,,0.00,WeatherDisplay:10.37,2013-01-03 01:53:00,
2013-01-02 20:59:00,17.8,10.9,30.15,ENE,68,5.8,5.8,74,0.00,-SN,,0.00,WeatherDisplay:10.37,2013-01-03 01:59:00,
2013-01-02 21:04:00,17.8,10.9,30.15,SSE,158,4.6,4.6,74,0.00,-SN,,0.00,WeatherDisplay:10.37,2013-01-03 02:04:00,
2013-01-02 21:09:00,17.8,10.9,30.15,SSE,158,4.6,4.6,74,0.00,-SN,,0.00,WeatherDisplay:10.37,2013-01-03 02:09:00,
2013-01-02 21:14:00,17.8,10.9,30.15,East,90,4.6,4.6,74,0.00,-SN,,0.00,WeatherDisplay:10.37,2013-01-03 02:14:00,
2013-01-02 21:19:00,17.6,11.0,30.15,SSE,158,5.9,5.9,75,0.00,-SN,,0.00,WeatherDisplay:10.37,2013-01-03 02:19:00,
2013-01-02 21:24:00,17.6,11.0,30.15,ESE,112,4.6,4.6,75,0.00,-SN,,0.00,WeatherDisplay:10.37,2013-01-03 02:24:00,
2013-01-02 21:30:00,17.4,10.8,30.15,SE,135,4.6,4.6,75,0.00,-SN,,0.00,WeatherDisplay:10.37,2013-01-03 02:30:00,
2013-01-02 21:35:00,17.2,10.7,30.15,ESE,112,5.8,5.9,75,0.00,-SN,,0.00,WeatherDisplay:10.37,2013-01-03 02:35:00,
2013-01-02 21:40:00,16.9,10.0,30.15,SE,135,6.9,6.9,74,0.00,-SN,,0.00,WeatherDisplay:10.37,2013-01-03 02:40:00,
2013-01-02 21:45:00,16.7,10.1,30.15,SSE,158,6.9,6.9,75,0.00,-SN,,0.00,WeatherDisplay:10.37,2013-01-03 02:45:00,
2013-01-02 21:50:00,16.5,10.0,30.15,SSE,158,6.9,6.9,75,0.00,-SN,,0.00,WeatherDisplay:10.37,2013-01-03 02:50:00,
2013-01-02 21:56:00,16.5,10.0,30.15,SSE,158,5.8,5.8,75,0.00,-SN,,0.00,WeatherDisplay:10.37,2013-01-03 02:56:00,
2013-01-02 22:01:00,16.5,10.0,30.15,ESE,112,4.6,4.6,75,0.00,-SN,,0.00,WeatherDisplay:10.37,2013-01-03 03:01:00,
2013-01-02 22:06:00,16.3,9.8,30.15,ESE,112,5.8,5.8,75,0.00,-SN,,0.00,WeatherDisplay:10.37,2013-01-03 03:06:00,
2013-01-02 22:11:00,16.3,9.8,30.15,ESE,112,4.6,4.6,75,0.00,-SN,,0.00,WeatherDisplay:10.37,2013-01-03 03:11:00,
2013-01-02 22:17:00,16.2,9.6,30.15,SSE,158,4.6,4.6,75,0.00,-SN,,0.00,WeatherDisplay:10.37,2013-01-03 03:17:00,
2013-01-02 22:22:00,16.2,9.6,30.15,ESE,112,3.5,3.5,75,0.00,-SN,,0.00,WeatherDisplay:10.37,2013-01-03 03:22:00,
2013-01-02 22:27:00,16.2,9.6,30.15,ESE,112,5.8,5.8,75,0.00,-SN,,0.00,WeatherDisplay:10.37,2013-01-03 03:27:00,
2013-01-02 22:32:00,16.2,9.6,30.15,ESE,112,4.6,4.6,75,0.00,-SN,,0.00,WeatherDisplay:10.37,2013-01-03 03:32:00,
2013-01-02 22:38:00,16.2,9.6,30.15,SSE,158,5.8,5.8,75,0.00,-SN,,0.00,WeatherDisplay:10.37,2013-01-03 03:38:00,
2013-01-02 22:43:00,16.2,9.6,30.15,ESE,112,5.8,5.8,75,0.00,-SN,,0.00,WeatherDisplay:10.37,2013-01-03 03:43:00,
2013-01-02 22:48:00,16.0,9.5,30.15,SE,135,5.8,5.8,75,0.00,-SN,,0.00,WeatherDisplay:10.37,2013-01-03 03:48:00,
2013-01-02 22:53:00,16.0,9.5,30.15,SE,135,4.0,4.0,75,0.00,-SN,,0.00,WeatherDisplay:10.37,2013-01-03 03:53:00,
2013-01-02 22:58:00,15.8,9.3,30.15,SE,135,8.1,8.1,75,0.00,-SN,,0.00,WeatherDisplay:10.37,2013-01-03 03:58:00,
2013-01-02 23:04:00,15.6,8.8,30.15,SSE,158,5.6,5.6,74,0.00,-SN,,0.00,WeatherDisplay:10.37,2013-01-03 04:04:00,
2013-01-02 23:09:00,15.6,8.8,30.18,SE,135,5.8,5.8,74,0.00,-SN,,0.00,WeatherDisplay:10.37,2013-01-03 04:09:00,
2013-01-02 23:14:00,15.4,8.6,30.18,SE,135,4.9,4.9,74,0.00,-SN,,0.00,WeatherDisplay:10.37,2013-01-03 04:14:00,
2013-01-02 23:19:00,15.4,8.6,30.18,SSE,158,4.6,4.6,74,0.00,-SN,,0.00,WeatherDisplay:10.37,2013-01-03 04:19:00,
2013-01-02 23:25:00,15.3,8.5,30.18,ESE,112,7.4,7.4,74,0.00,-SN,,0.00,WeatherDisplay:10.37,2013-01-03 04:25:00,
2013-01-02 23:30:00,15.3,8.2,30.18,SSE,158,5.4,5.4,73,0.00,-SN,,0.00,WeatherDisplay:10.37,2013-01-03 04:30:00,
2013-01-02 23:35:00,15.1,8.0,30.15,ESE,112,5.8,5.9,73,0.00,-SN,,0.00,WeatherDisplay:10.37,2013-01-03 04:35:00,
2013-01-02 23:40:00,14.9,7.8,30.15,ESE,112,5.8,5.8,73,0.00,-SN,,0.00,WeatherDisplay:10.37,2013-01-03 04:40:00,
2013-01-02 23:45:00,14.9,7.8,30.15,SSE,158,4.6,4.6,73,0.00,-SN,,0.00,WeatherDisplay:10.37,2013-01-03 04:45:00,
2013-01-02 23:50:00,14.7,7.6,30.15,ESE,112,5.8,5.8,73,0.00,-SN,,0.00,WeatherDisplay:10.37,2013-01-03 04:50:00,
2013-01-02 23:56:00,14.5,7.5,30.15,SSE,158,4.6,4.6,73,0.00,-SN,,0.00,WeatherDisplay:10.37,2013-01-03 04:56:00,